Location: Unspecified
(0.0000°N, 0.0000°E)
Time: 18:25:37
(UTC+00:00)

deb r/b Ablestar - Pass Details

Date: 25 June 2025
Orbit: 824 x 957 km, 66.7° (Epoch: 19 July)

Event Time Altitude Azimuth Distance (km) Brightness Sun altitude
Exits shadow 20:27:09 12° 25° (NNE) 2,527 ? -32.7°
Drops below altitude 10° 20:27:32 10° 25° (NNE) 2,666 ? -32.8°
Sets 20:30:06 0° 23° (NNE) 3,615 ? -33.4°
